Harrison, AR

1:53 AM CDT on October 17, 2017 (GMT -0500)
Boone County

Weather History for KHRO - October, 2012

Change the Weather History Date:

Tuesday, October 23, 2012

  Actual Average Record
Temperature  
Mean Temperature 74 °F 57 °F  
Max Temperature 84 °F 68 °F 88 °F (1939)
Min Temperature 64 °F 46 °F 21 °F (1937)
Degree Days  
Heating Degree Days 0 9  
Month to date heating degree days 146 142  
Since 1 July heating degree days 169 185  
Cooling Degree Days 9 1  
Month to date cooling degree days 30 29  
Year to date cooling degree days 1952 1408  
Growing Degree Days 23 (Base 50)    
Moisture  
Dew Point 56 °F    
Average Humidity 60    
Maximum Humidity 81    
Minimum Humidity 39    
Precipitation  
Precipitation 0.00 in 0.12 in 1.70 in (1951)
Month to date precipitation 2.91 2.59  
Year to date precipitation 26.23 35.75  
Snow  
Snow 0.00 in 0.00 in - ()
Month to date snowfall 0.0 0.0  
Since 1 July snowfall 0.0 0.0  
Since 1 September snowfall 0.0 0.0  
Snow Depth 0.00 in    
Sea Level Pressure  
Sea Level Pressure 29.92 in    
Wind  
Wind Speed 9 mph (South)    
Max Wind Speed 18 mph    
Max Gust Speed 25 mph    
Visibility 10 miles    
Events      
T = Trace of Precipitation, MM = Missing Value Source: NWS Daily Summary

Daily Weather History Graph

Daily Weather History Graph

Search for Another Location

Airport or City:

Trip Planner

Search our weather history database for the weather conditions in past years. The results will help you decide how hot, cold, wet, or windy it might be!

Date:

Astronomy

Oct. 23, 2012 Rise Set
Actual Time 7:27 AM CDT 6:25 PM CDT
Civil Twilight 7:01 AM CDT 6:51 PM CDT
Nautical Twilight 6:31 AM CDT 7:22 PM CDT
Astronomical Twilight 6:01 AM CDT 7:51 PM CDT
Moon 3:00 PM CDT (10/23) 1:30 AM CDT (10/23)
Length of Visible Light 11h 50m
Length of Day
10h 58m
Waxing Gibbous, 67% of the Moon is Illuminated
Oct 23
Waxing Gibbous
Oct 29
Full
Nov 6
Last Quarter
Nov 13
New
Nov 20
First Quarter

Hourly Weather History & Observations

Time (CDT) Temp. Heat Index Dew Point Humidity Pressure Visibility Wind Dir Wind Speed Gust Speed Precip Events Conditions
12:53 AM 69.8 °F - 60.8 °F 73% 29.99 in 10.0 mi South 12.7 mph 17.3 mph N/A   Overcast
1:53 AM 69.8 °F - 57.2 °F 64% 29.97 in 10.0 mi South 10.4 mph - N/A   Mostly Cloudy
2:53 AM 69.1 °F - 57.0 °F 65% 29.93 in 10.0 mi SSE 9.2 mph - N/A   Overcast
3:53 AM 68.0 °F - 55.9 °F 65% 29.92 in 10.0 mi South 6.9 mph - N/A   Mostly Cloudy
4:53 AM 68.0 °F - 55.0 °F 63% 29.93 in 10.0 mi South 6.9 mph - N/A   Mostly Cloudy
5:53 AM 66.9 °F - 55.9 °F 68% 29.94 in 10.0 mi South 3.5 mph - N/A   Overcast
6:53 AM 66.0 °F - 55.9 °F 70% 29.94 in 10.0 mi South 5.8 mph - N/A   Clear
7:53 AM 64.0 °F - 57.0 °F 78% 29.94 in 10.0 mi SE 6.9 mph - N/A   Partly Cloudy
8:53 AM 70.0 °F - 60.1 °F 71% 29.95 in 10.0 mi South 9.2 mph - N/A   Clear
9:53 AM 75.9 °F - 59.0 °F 56% 29.94 in 10.0 mi SSE 9.2 mph - N/A   Mostly Cloudy
10:53 AM 75.9 °F - 53.1 °F 45% 29.94 in 10.0 mi South 12.7 mph - N/A   Scattered Clouds
11:42 AM 80.6 °F 80.3 °F 53.6 °F 39% 29.97 in 10.0 mi South 10.4 mph 19.6 mph N/A   Partly Cloudy
11:53 AM 80.1 °F 80.0 °F 54.0 °F 40% 29.92 in 10.0 mi South 11.5 mph 24.2 mph N/A   Clear
12:14 PM 80.6 °F - 51.8 °F 37% 29.96 in 10.0 mi SW 12.7 mph 25.3 mph N/A   Partly Cloudy
12:53 PM 81.0 °F 80.4 °F 53.1 °F 38% 29.91 in 10.0 mi SSW 11.5 mph 20.7 mph N/A   Clear
1:53 PM 82.0 °F 81.4 °F 55.0 °F 39% 29.89 in 10.0 mi South 15.0 mph 19.6 mph N/A   Clear
2:53 PM 82.0 °F 81.4 °F 55.0 °F 39% 29.88 in 10.0 mi South 13.8 mph 19.6 mph N/A   Clear
3:53 PM 82.0 °F 81.4 °F 55.0 °F 39% 29.87 in 10.0 mi South 10.4 mph 17.3 mph N/A   Clear
4:53 PM 80.1 °F 80.2 °F 55.9 °F 43% 29.88 in 10.0 mi South 10.4 mph - N/A   Clear
5:34 PM 78.8 °F - 55.4 °F 44% 29.91 in 10.0 mi South 15.0 mph - N/A   Partly Cloudy
5:53 PM 75.9 °F - 55.9 °F 50% 29.88 in 10.0 mi South 9.2 mph 18.4 mph N/A   Clear
6:53 PM 73.0 °F - 57.0 °F 57% 29.89 in 10.0 mi South 10.4 mph - N/A   Clear
7:53 PM 71.1 °F - 57.9 °F 63% 29.91 in 10.0 mi South 6.9 mph - N/A   Clear
8:53 PM 70.0 °F - 57.9 °F 65% 29.91 in 10.0 mi South 8.1 mph - N/A   Clear
9:53 PM 69.1 °F - 59.0 °F 70% 29.93 in 10.0 mi South 9.2 mph - N/A   Clear
10:53 PM 68.0 °F - 60.1 °F 76% 29.93 in 10.0 mi South 5.8 mph - N/A   Clear
11:53 PM 66.0 °F - 60.1 °F 81% 29.94 in 10.0 mi SSE 4.6 mph - N/A   Clear